Location: Bowden
(51.9167°N, 114.0333°W)
Time: 10:30:05
(UTC+00:00)

Envisat - Pass Details

Date: 06 December 2021
Orbit: 764 x 766 km, 98.2° (Epoch: 28 January)

Event Time Altitude Azimuth Distance (km) Brightness Sun altitude
Rises 14:15:31 0° 6° (N) 3,248 6.1 -10.5°
Reaches altitude 10° 14:18:14 10° 353° (N) 2,317 5.2 -10.2°
Maximum altitude 14:22:09 23° 302° (WNW) 1,593 4.1 -9.6°
Drops below altitude 10° 14:26:04 10° 252° (WSW) 2,305 5.1 -9.1°
Sets 14:28:47 0° 238° (WSW) 3,227 5.9 -8.7°
